Regional Weather Roundup
Issued by NWS Green Bay, WI

Home | Current Version | Previous Version | Text Only | Print | Product List | Glossary On
Versions: 1 2 3 4 5 6 7 8 9 10 11 12 13 14 15 16 17 18 19 20 21 22 23 24 25 26 27 28 29 30 31 32 33 34 35 36 37 38 39 40 41 42 43 44 45 46 47 48 49 50
000
ASUS43 KGRB 271059
RWRGRB

NORTH-CENTRAL AND NORTHEAST WISCONSIN REGIONAL WEATHER ROUNDUP
NATIONAL WEATHER SERVICE GREEN BAY WI
600 AM CDT WED AUG 27 2014

WIZ005-009-010>012-018-019-271200-
NORTH CENTRAL WISCONSIN

CITY           SKY/WX    TMP DP  RH WIND       PRES   REMARKS
IRONWOOD       NOT AVBL
MANITOWISH WTR NOT AVBL
ARBOR VITAE    NOT AVBL
EAGLE RIVER    NOT AVBL
LAND O LAKES   NOT AVBL
RHINELANDER    MOCLDY    54  53  97 CALM      30.19R
PHILLIPS       NOT AVBL
ANTIGO         NOT AVBL
TOMAHAWK       NOT AVBL
MERRILL        NOT AVBL
$$

WIZ013-073-271200-
NORTHEAST WISCONSIN

CITY           SKY/WX    TMP DP  RH WIND       PRES   REMARKS
IRON MOUNTAIN  CLOUDY    53  52  96 CALM      30.15S
MARINETTE      CLOUDY    55  52  88 CALM      30.14F
$$

WIZ017-030-035>037-045-271200-
CENTRAL WISCONSIN

CITY           SKY/WX    TMP DP  RH WIND       PRES   REMARKS
MEDFORD        NOT AVBL
WAUSAU         MOCLDY    57  55  93 CALM      30.16R
MOSINEE        MOCLDY    55  55 100 CALM      30.13F
MARSHFIELD     MOCLDY    57  55  93 CALM      30.18R
WISC RAPIDS    MOCLDY    60  54  80 CALM      30.19R
STEVENS POINT  NOT AVBL
WAUPACA        NOT AVBL
SHAWANO        MOCLDY    58  55  88 CALM      30.16F
CLINTONVILLE   NOT AVBL
$$

WIZ038-039-048-051-271200-
FOX VALLEY

CITY           SKY/WX    TMP DP  RH WIND       PRES   REMARKS
NWS GREEN BAY  PTCLDY    58  55  90 CALM      30.15F
APPLETON       MOCLDY    59  52  77 N6        30.16S
OSHKOSH        MOCLDY    63  55  75 E8        30.15S
FOND DU LAC    MOCLDY    62  57  83 NE7       30.16S
$$

WIZ022-050-052-271200-
EAST CENTRAL WISCONSIN

CITY           SKY/WX    TMP DP  RH WIND       PRES   REMARKS
STURGEON BAY   CLOUDY    59  52  77 E3        30.16S
MANITOWOC      NOT AVBL
SHEBOYGAN      CLOUDY    62  59  90 N9        30.16R
$$

LMZ563-521-522-541>543-271200-
LAKESHORE

STATION/POSITION TIME  TEMP    WIND        PRES    VSBY  WAVE
                       AIR SEA DIR/SP/G                  HT/PER
                 (UTC) (F)     (DEG/KT/KT) (MB)    (MI)  (FT/S)
SHEBOYGAN LKSHOR 1000   63 66  340/  9/ 11 1020.8S
KEWAUNEE LKSHORE 1000   61     360/  2/  4 1020.1F
ALGOMA MARINA    1000           40/  5/  7   N/A
NORTHPORT PIER   1000   63     360/  5/  7 1021.0S
N MID LAKE BUOY  1000   62 65  340/  8/ 10 1020.8F         1/ 3
S GREEN BAY BUOY 1000   65     VRB  8      1021.9R
SISTER BAY LKSHO 1000   60        CALM       N/A
CHAMBERS ISLAND  1000   61     310/  6/  8 1021.3S
MENOMINEE LKSHOR 1000   58     300/  5/  7 1022.0R
$$



USA.gov is the U.S. government's official web portal to all federal, state and local government web resources and services.